Zurück zum Katalog

APSTAR 5

TELSTAR 18

AktivKommunikationGEO
NORAD 28364·PAYLOAD·🇨🇳 China

Gestartet Jun 29, 2004 von Sea Launch Platform

Loading…

TLE

AktuellSource: Space-Track

Epoche: Sep 14, 2026, 12:26 UTC

1 28364U 04024A   26257.51862867  .00000051  00000-0  00000-0 0  9994
2 28364   7.1942  68.6634 0001626  31.2849 154.7859  0.99010351 81188

Verfolge APSTAR 5 in Echtzeit mit AllMySat

Download on the App Store